Tracking 32941 objects as of 15-Jan-2026
HD Live streaming from Space Station
objects crossing your sky now

GGSE 3 DEB

Track GGSE 3 DEB now!
10-day predictions


NORAD ID: 44043
Int'l Code: 1965-016L
Perigee: 874.2 km
Apogee: 899.8 km
Inclination: 70.1 °
Period: 102.6 minutes
Semi major axis: 7258 km
RCS: Unknown
Launch date: March 9, 1965
Source: United States (US)
Launch site: AIR FORCE WESTERN TEST RANGE (AFWTR)

Note: This is SATELLITE DEBRIS
Your satellite tracking list
Your tracking list is empty




NASA's NSSDC Master Catalog

Two Line Element Set (TLE):
1 44043U 65016L   26015.09474687  .00000597  00000-0  41066-3 0  9993
2 44043  70.0754 273.2554 0017653 161.7631 198.4116 14.04030966354268
Source of the keplerian elements: AFSPC